Wind_Speed
11 10 11 11 11 11 12 12 12 13 14 16 15 13 14 13 13 12 10 10 10 9 8 8 7 6 6 5 6 7 7 6 5 6 3 2 4 3 1 2 1 2 2 3 3 2 2 2 2 1 1 0 1 1 1 2 3 4 6 7 8 8 9 10 10 10 10 10 10 10 10 11 11 10 11 12 12 13 13 13 14 15 15 16 17
9 9 10 11 12 12 11 10 12 14 15 16 14 13 15 14 14 13 12 11 11 10 9 8 7 6 6 5 5 6 6 6 5 4 5 5 9 7 3 1 1 2 2 2 3 2 2 2 2 1 1 1 1 1 2 3 5 6 7 8 9 9 9 9 9 9 9 9 9 9 9 9 9 9 9 11 12 12 12 12 13 14 15 15 17
9 9 11 12 12 12 11 11 12 15 15 15 14 14 16 14 13 13 12 12 11 11 9 8 8 7 6 6 5 5 5 5 6 5 6 5 7 6 3 2 2 3 2 2 2 3 3 2 2 2 2 2 2 3 4 5 7 8 8 9 9 9 9 9 8 8 8 8 8 8 8 7 8 8 9 10 11 12 12 12 12 13 15 15 17
12 12 12 12 12 11 11 11 12 14 14 14 14 15 16 14 14 13 12 12 11 11 10 9 9 8 8 8 6 5 5 6 6 7 7 6 4 2 3 2 2 2 3 2 2 2 2 2 3 3 4 5 5 6 6 7 8 8 8 9 9 9 8 8 8 7 8 7 7 7 7 7 7 7 8 9 10 11 11 12 12 14 15 16 17
14 14 14 13 12 12 11 11 11 12 13 15 15 15 16 15 14 14 13 13 12 11 10 10 9 9 10 9 6 6 7 6 7 7 7 7 5 5 4 3 3 3 3 3 2 2 1 2 4 5 6 7 8 8 8 8 8 8 8 8 8 7 7 7 7 8 8 8 8 8 8 8 7 7 8 8 10 10 11 11 12 14 15 16 16
13 14 15 15 14 13 12 10 11 13 14 15 16 17 16 15 15 14 15 15 13 12 12 11 10 10 10 8 7 10 9 7 7 7 7 7 6 6 5 4 4 4 2 1 1 2 2 3 6 8 9 9 9 9 8 8 8 8 7 7 6 7 7 6 7 8 9 9 9 9 9 9 9 8 7 8 9 10 10 11 12 13 15 15 15
13 14 16 16 15 14 14 12 11 13 15 14 14 16 16 15 15 14 15 15 13 13 13 12 11 11 10 9 10 11 7 8 8 6 7 7 7 7 5 4 2 2 3 1 1 1 4 6 8 9 10 9 9 9 8 8 8 7 7 6 6 6 6 5 6 7 7 8 9 9 9 10 11 10 8 8 9 10 10 11 12 13 13 13 14
13 14 16 17 17 16 16 15 13 13 15 16 15 15 15 17 17 15 15 15 14 14 13 12 12 12 12 11 11 9 7 9 8 6 7 7 6 7 6 5 6 5 6 5 0 3 5 7 8 9 9 9 9 8 8 7 7 7 6 5 4 4 4 4 5 5 5 6 7 8 8 9 11 12 10 8 9 10 10 11 11 12 12 12 12
14 15 16 17 18 18 17 17 15 14 16 17 16 16 16 18 20 18 17 16 15 15 14 13 12 13 13 12 10 9 9 9 8 9 8 7 7 8 8 8 8 9 9 7 3 5 7 7 7 7 7 7 8 8 7 7 6 5 5 3 3 2 2 3 3 4 3 3 5 6 6 7 8 10 10 9 9 10 10 10 10 11 11 12 12
15 15 16 18 20 19 18 18 18 18 19 17 16 17 17 18 20 20 20 18 16 16 15 14 13 13 13 11 10 11 11 10 11 10 8 8 10 9 8 8 8 8 9 8 6 5 6 6 6 7 6 6 6 6 5 5 5 4 3 3 2 2 2 3 2 2 1 1 2 3 4 5 7 8 9 8 9 10 10 10 10 10 11 12 12
17 17 17 18 20 21 19 19 19 20 20 18 18 19 18 20 21 20 22 21 18 16 16 15 14 14 13 12 12 13 13 12 12 10 9 10 12 11 10 8 7 8 8 9 8 6 7 7 6 6 6 6 6 5 5 5 5 4 4 4 3 3 3 4 3 1 1 1 1 2 3 4 5 7 7 8 9 10 11 10 9 9 10 11 12
17 19 19 19 21 23 22 22 22 22 21 21 21 19 19 22 23 22 22 22 19 17 16 16 15 14 13 13 13 14 14 12 12 11 11 12 12 11 10 9 7 8 9 9 8 6 7 7 7 7 7 7 7 6 6 6 5 5 5 5 4 4 5 5 4 3 3 3 3 3 4 4 4 5 7 8 10 11 10 8 8 8 9 10 11
18 20 21 20 21 24 24 24 25 25 24 23 22 21 20 21 24 23 22 22 19 17 17 16 15 15 14 13 13 14 14 13 12 13 13 12 12 11 10 10 8 8 9 10 8 7 7 6 6 8 8 7 6 6 7 6 6 7 7 6 5 5 6 6 5 5 4 4 4 4 4 4 4 5 6 6 8 9 9 7 7 7 7 9 9
18 20 22 21 22 24 25 26 26 25 25 24 22 21 20 21 25 24 22 22 20 19 19 18 16 16 14 12 13 13 13 13 13 13 14 12 11 12 13 12 11 9 9 10 10 9 9 8 7 7 7 7 6 6 6 7 7 7 7 6 6 7 7 7 6 5 4 3 3 4 5 5 5 4 5 6 7 7 7 7 6 5 6 7 8
19 21 22 22 22 24 25 26 27 26 26 25 22 22 21 22 25 25 22 23 22 20 21 20 17 15 13 13 13 13 13 14 14 14 14 13 12 14 15 14 14 12 9 10 10 9 9 9 9 9 8 6 6 6 6 7 6 6 7 7 8 9 9 8 6 5 4 3 3 4 5 6 5 4 5 6 6 6 6 6 6 6 6 6 7
20 21 22 22 22 24 24 27 27 26 26 26 23 23 22 22 25 26 24 24 21 19 21 21 18 16 14 13 12 12 12 13 15 15 14 14 15 16 14 13 15 13 11 11 10 10 9 9 9 9 8 7 7 7 7 7 7 7 8 8 10 11 10 8 7 5 4 4 4 4 5 6 6 6 6 5 4 4 5 5 6 6 6 6 7
18 19 21 22 21 23 24 26 28 27 28 27 25 25 23 23 26 27 27 25 21 18 20 21 21 20 17 14 12 12 12 11 12 15 16 15 15 15 14 13 14 14 14 13 11 11 10 10 10 10 9 9 8 8 7 7 8 8 9 10 12 12 9 7 7 5 4 5 5 5 6 8 7 7 7 5 4 4 4 5 5 6 6 6 7
17 17 19 22 22 23 24 26 28 29 30 28 27 27 25 24 26 27 28 26 21 17 19 21 23 23 21 18 14 11 12 11 12 13 14 15 15 15 15 13 13 15 14 13 12 12 11 10 11 11 10 9 8 8 7 7 9 10 10 12 13 11 8 7 7 6 6 6 6 6 7 8 9 8 7 5 4 4 4 5 5 5 6 6 6
17 17 18 22 23 24 24 25 27 30 31 30 30 29 27 26 27 27 25 23 22 19 18 21 23 24 24 22 18 14 12 12 13 13 13 15 16 14 14 13 13 15 15 13 12 12 12 11 10 10 9 8 9 8 7 8 9 11 12 13 12 10 8 7 7 6 7 6 6 7 8 9 9 8 6 5 5 5 5 5 5 5 6 6 6
17 17 17 20 23 24 25 26 27 29 30 31 32 31 30 29 29 28 22 21 23 22 20 21 22 23 24 24 22 18 15 14 14 14 14 16 15 14 14 14 13 14 15 14 13 14 13 11 10 9 8 9 9 8 8 10 10 12 13 12 11 10 8 8 7 7 7 6 7 8 9 9 9 8 7 6 5 5 5 5 6 6 6 7 7
17 17 18 20 23 24 26 27 27 29 30 29 30 31 31 31 30 29 25 25 26 25 25 24 21 21 22 23 22 19 17 17 15 14 14 13 14 15 14 14 14 14 15 15 14 14 14 12 10 9 9 9 9 9 9 11 12 13 13 11 10 9 9 9 8 8 7 7 7 8 8 8 8 8 7 6 6 5 5 6 6 7 8 8 9
17 17 18 20 20 21 24 25 24 27 27 27 28 29 31 31 30 30 29 29 27 26 28 24 20 21 21 21 22 21 20 20 17 16 15 11 12 14 14 15 15 15 17 18 16 14 14 13 11 11 11 10 12 11 10 12 14 13 12 11 9 9 10 10 9 8 7 7 8 8 9 8 8 8 8 7 6 6 6 7 7 8 9 9 10
17 16 16 15 14 15 18 19 20 23 22 24 28 28 29 30 29 29 29 28 27 26 27 24 20 21 22 21 22 22 22 20 18 17 15 12 12 14 15 15 15 15 17 19 17 15 14 13 12 12 11 10 12 13 11 12 14 12 10 10 10 10 11 11 10 9 8 8 9 9 9 9 9 8 8 7 7 7 7 8 8 9 10 10 11
17 15 13 12 11 12 14 15 17 18 16 22 28 27 27 28 27 29 30 28 27 26 27 26 23 23 23 22 22 22 22 20 19 18 16 14 12 13 15 15 15 14 14 17 17 15 14 14 13 13 13 11 12 13 12 13 15 13 9 9 10 11 12 12 11 10 9 9 10 10 10 10 10 9 8 8 8 8 8 8 9 9 10 10 9
16 16 13 12 12 12 12 13 14 14 14 19 25 25 25 26 26 28 31 30 28 28 27 24 23 24 23 22 22 22 22 21 20 19 17 16 13 12 13 14 14 15 14 15 17 16 16 16 15 14 14 13 13 13 13 14 15 13 11 10 11 12 13 12 12 11 11 11 11 11 11 10 10 10 9 9 9 9 9 9 9 9 9 8 8
15 15 13 13 13 13 14 15 14 15 16 19 23 25 25 25 26 27 30 30 27 27 27 23 22 24 24 23 23 22 23 23 21 19 17 17 15 13 12 13 13 15 17 16 18 19 18 17 16 15 16 14 14 15 14 14 14 13 12 11 11 13 13 13 13 12 12 13 13 12 11 11 10 10 10 10 10 10 10 10 9 9 8 8 7
17 16 15 14 14 13 14 15 16 16 18 21 23 25 25 26 27 27 29 28 24 24 24 22 22 24 24 24 23 24 24 23 21 20 18 17 15 14 13 14 13 14 15 15 17 20 18 16 16 16 16 15 15 16 16 16 14 12 13 13 12 13 14 14 13 13 13 14 14 13 12 11 10 10 10 10 10 10 10 10 10 9 8 8 8
19 19 17 16 14 14 14 15 17 18 19 21 22 24 25 26 28 28 29 28 26 25 23 22 23 23 23 24 24 26 25 24 24 21 18 16 15 15 15 15 15 14 14 14 16 18 17 17 17 17 17 17 17 16 16 18 16 13 14 14 13 14 14 14 14 13 14 15 14 14 13 11 11 10 10 10 10 10 11 10 10 9 9 9 8
20 21 20 16 14 14 15 16 17 19 20 21 22 24 24 25 28 28 29 29 27 25 24 23 24 23 23 24 25 27 26 25 25 21 19 18 16 17 19 17 14 15 16 15 16 18 18 18 18 18 18 18 18 16 15 16 15 13 15 15 14 15 15 14 14 14 15 16 15 14 13 12 11 11 10 10 10 10 11 11 10 10 9 9 9
18 20 20 17 14 14 16 17 17 19 21 22 23 24 24 26 28 29 28 27 26 26 25 24 24 23 24 26 27 28 27 26 26 23 22 21 18 18 20 18 16 16 15 15 16 18 19 19 18 17 18 18 18 16 15 15 14 13 15 15 14 15 15 14 14 14 16 16 15 14 13 12 12 11 11 11 11 10 11 11 10 10 10 10 10
17 19 20 18 15 15 17 18 19 19 20 23 24 23 24 26 28 27 27 26 26 26 24 24 25 24 25 27 29 30 29 28 25 23 23 23 23 22 19 19 21 19 17 16 16 17 18 18 18 18 17 18 19 17 16 17 16 14 15 15 14 14 16 15 14 15 16 16 16 15 14 13 12 12 11 11 11 11 10 10 10 10 10 10 10
17 19 20 18 17 17 18 18 20 20 20 22 24 24 25 26 27 27 25 26 26 25 24 25 26 25 25 27 29 29 30 27 24 24 23 23 25 25 21 21 22 20 19 19 17 16 18 19 18 18 18 19 20 18 17 18 19 15 15 15 16 16 16 17 15 15 16 16 16 15 14 13 12 12 12 11 11 11 11 11 10 10 10 10 10
16 17 19 19 18 18 19 19 19 19 20 21 23 25 27 27 29 27 24 25 26 25 25 26 26 26 26 27 27 27 28 29 27 26 26 25 26 26 24 22 21 20 20 19 17 16 18 20 20 19 18 20 21 19 18 19 18 16 16 17 19 18 17 17 16 15 16 17 17 16 15 14 13 12 12 12 12 12 11 11 11 11 11 11 11
16 16 18 19 19 19 19 20 20 20 20 21 22 25 27 29 30 29 26 27 27 26 26 27 26 27 27 27 28 27 27 29 29 27 26 26 27 27 26 25 23 21 19 19 18 15 17 21 21 18 18 19 22 21 20 20 17 16 19 18 18 18 17 17 17 16 17 17 17 17 16 15 14 14 13 13 13 13 12 12 12 12 12 11 11
19 17 17 19 20 21 21 22 23 22 21 22 22 23 26 28 29 29 29 28 28 27 28 27 26 27 27 26 28 28 26 28 29 27 24 26 27 27 27 27 25 21 19 20 20 17 18 21 20 19 20 21 23 23 22 20 17 16 19 18 16 16 17 17 16 16 17 17 17 17 17 16 15 15 14 14 14 14 13 13 13 12 12 12 11
21 20 19 19 21 23 24 25 25 24 23 23 24 25 27 28 27 28 29 29 28 27 28 28 27 27 27 27 27 27 25 26 27 27 26 26 27 27 27 27 25 23 21 21 20 18 19 21 19 19 22 22 23 24 21 20 17 15 17 19 16 15 17 16 15 15 16 16 18 18 17 17 16 15 15 14 14 14 14 14 13 13 12 12 12
21 20 20 21 22 23 24 25 25 25 24 23 24 26 27 28 27 25 26 26 26 26 27 27 26 26 27 28 28 26 26 27 27 27 27 27 27 26 25 25 25 23 22 21 19 18 19 20 20 20 21 21 22 23 22 21 19 16 17 19 17 16 17 16 15 16 17 16 18 19 18 18 17 16 16 15 14 14 14 14 14 13 13 13 13
22 21 20 21 22 23 24 23 22 25 26 23 23 25 26 26 24 23 24 26 26 26 25 25 25 26 27 27 26 24 25 27 27 26 27 27 26 25 23 23 23 23 24 22 20 20 20 21 21 20 20 21 21 21 21 21 20 17 17 18 17 17 18 17 16 18 20 19 18 19 19 19 18 17 16 15 14 14 14 14 14 14 14 14 14
23 22 21 20 20 22 24 23 21 23 25 25 25 25 26 26 23 22 25 27 27 26 24 23 25 26 27 26 25 24 25 26 26 26 26 25 25 24 23 22 21 22 24 24 21 21 22 22 22 21 20 20 21 22 22 21 20 18 18 18 18 17 18 18 17 18 20 20 18 18 18 18 18 17 16 16 15 15 15 14 14 14 14 14 14
23 23 22 21 20 19 21 22 21 22 25 27 27 25 25 25 25 25 27 28 27 27 26 24 25 26 26 27 27 26 26 27 28 28 27 26 26 26 26 25 21 19 22 24 22 21 22 23 24 23 20 20 22 23 21 21 21 20 19 19 18 18 17 18 18 17 17 18 18 18 18 18 18 18 17 17 17 16 15 15 14 14 13 13 13
22 22 22 23 23 21 19 18 19 21 25 26 25 25 23 23 24 26 28 27 25 26 25 23 24 25 25 27 28 27 26 26 28 30 29 28 28 27 27 28 25 22 23 23 22 22 22 22 22 22 20 19 21 22 22 23 23 21 20 19 18 17 17 17 17 17 16 15 15 16 16 17 17 17 18 18 17 16 15 15 15 14 13 14 15
22 21 21 22 22 23 21 18 17 19 23 24 24 24 24 24 24 25 27 26 24 25 26 23 23 24 25 26 27 27 26 26 27 30 29 27 27 27 27 26 26 25 24 23 22 24 23 19 17 21 22 18 20 23 23 23 24 22 20 19 18 17 17 16 15 17 17 16 15 15 15 16 15 16 17 17 16 15 15 15 15 15 16 16 17
21 21 21 21 21 22 23 21 20 19 21 22 24 25 25 27 28 28 28 28 26 26 27 26 24 24 25 26 25 25 26 27 28 30 29 26 25 26 26 25 25 25 24 23 24 25 24 19 15 18 23 22 21 21 21 21 22 22 20 20 19 17 18 18 16 16 19 19 17 15 15 16 15 14 14 14 15 17 17 16 16 16 17 17 17
23 22 21 21 20 20 21 22 22 22 21 20 22 25 26 27 29 29 29 30 28 26 28 28 26 25 26 28 26 25 26 27 29 30 29 26 26 26 26 25 23 23 23 24 24 23 23 22 18 15 22 27 24 21 22 21 21 21 20 19 19 19 19 18 17 16 18 19 18 17 15 15 15 14 13 14 17 19 18 17 17 17 17 17 17
27 25 23 22 20 19 19 20 20 21 23 20 19 22 25 27 29 28 28 29 28 26 28 30 28 27 28 28 27 25 26 28 31 31 28 28 28 27 27 26 24 23 23 23 23 22 22 23 21 17 20 27 28 25 23 21 19 20 21 20 19 19 19 18 17 16 17 17 18 17 15 15 16 14 13 13 15 17 17 17 18 19 19 18 19
32 31 28 26 23 20 18 18 19 19 21 21 19 18 22 26 28 28 28 27 26 28 29 29 29 29 29 28 28 27 26 27 30 31 28 26 27 27 26 26 25 25 25 23 23 23 22 22 23 20 18 23 29 28 24 22 19 19 20 20 20 19 18 19 18 16 16 16 17 17 15 14 16 16 16 17 17 16 17 18 18 19 20 19 19
32 34 33 32 30 27 23 19 17 18 20 22 22 21 22 23 25 28 29 28 28 30 29 27 27 28 27 27 27 27 25 24 24 26 25 23 23 24 23 24 25 25 25 25 23 24 24 23 23 21 18 19 24 26 26 25 20 19 21 23 24 23 23 23 20 15 15 17 19 19 16 14 16 17 16 18 19 17 16 16 17 17 18 18 19
27 32 34 34 34 32 29 25 20 17 18 20 23 24 24 25 25 27 29 30 28 27 27 26 26 26 26 25 24 25 24 21 19 20 21 20 21 21 21 21 21 21 21 23 22 23 24 24 22 21 20 18 18 20 25 26 23 23 25 24 25 27 28 28 24 18 15 16 20 22 18 16 19 18 13 11 13 12 11 12 14 16 16 17 18
23 27 31 33 34 34 32 31 27 22 19 19 20 21 23 25 26 26 29 31 28 25 25 25 23 23 26 27 26 24 22 19 17 17 18 18 19 19 18 17 18 19 19 20 19 19 22 23 21 21 21 18 15 17 23 26 25 25 26 25 24 25 27 30 29 22 18 19 21 21 19 17 17 17 12 7 6 6 7 9 12 14 15 16 16
20 22 24 27 32 35 34 33 31 28 24 22 20 20 20 22 23 24 26 25 23 24 26 26 24 25 26 26 26 24 21 19 18 16 15 15 16 15 14 15 17 19 18 17 17 18 20 22 21 20 21 20 18 18 22 23 21 21 23 24 23 22 24 28 27 24 22 22 22 21 19 16 10 9 9 6 4 5 6 7 9 10 12 14 14
19 20 20 22 28 33 34 33 32 31 28 25 23 21 19 19 20 21 20 18 19 25 28 28 28 27 25 23 23 21 20 21 21 20 17 15 14 13 13 13 14 15 15 14 16 18 19 21 21 21 22 22 21 20 21 20 20 20 20 20 19 19 21 22 23 24 23 22 22 18 14 12 10 9 9 7 5 6 8 6 7 7 7 9 11
Wind_Direction
221 218 214 205 201 196 193 196 190 196 197 190 202 201 190 197 196 192 189 193 193 182 183 178 167 161 161 166 162 153 147 143 134 138 145 201 252 270 215 202 199 248 253 234 244 258 252 235 235 243 243 260 157 162 132 121 114 106 103 100 97 92 87 83 79 75 73 71 70 70 69 68 67 66 69 70 71 72 74 77 82 83 82 83 84
230 224 223 220 208 200 200 208 194 189 198 194 199 203 197 199 196 190 191 197 195 188 188 180 174 171 175 183 171 160 153 143 142 151 153 196 262 266 199 195 255 251 265 254 255 224 223 231 196 149 116 110 121 141 135 124 116 111 106 102 100 94 89 85 81 76 73 71 68 67 67 67 67 66 68 70 72 73 75 79 84 87 87 86 85
238 229 222 231 225 209 203 204 192 188 198 197 199 206 202 200 197 192 193 200 198 193 191 182 183 182 182 191 179 166 164 159 160 163 161 196 269 272 204 216 249 263 294 281 259 213 219 217 173 150 138 143 140 137 131 124 116 111 106 102 98 93 90 84 78 73 67 62 59 58 59 62 67 68 69 71 72 74 77 80 85 89 89 89 88
233 227 217 227 234 226 210 202 202 200 199 196 201 210 207 200 197 196 197 200 199 196 193 188 190 185 189 200 188 175 182 183 178 173 177 191 217 243 237 247 234 256 275 278 267 222 231 194 159 154 152 146 140 135 127 123 116 110 105 100 96 91 86 81 74 66 59 55 54 55 59 65 72 73 71 73 76 76 79 82 84 88 89 89 90
237 229 223 225 230 236 225 208 211 213 204 195 198 209 209 202 197 197 199 197 197 198 195 192 191 187 198 205 184 188 200 195 189 185 188 189 183 195 221 259 290 288 260 263 275 246 252 170 155 152 151 144 138 134 127 122 116 110 104 97 94 89 84 79 72 63 59 59 60 63 65 71 77 78 75 75 80 82 82 85 86 90 91 90 90
251 243 236 234 231 240 245 230 219 220 216 204 200 207 210 207 201 200 203 200 197 200 198 196 192 194 205 198 187 208 209 196 204 204 196 191 188 195 210 244 284 312 306 295 305 247 194 160 159 152 149 145 140 133 128 123 115 109 102 98 94 89 84 78 71 64 63 63 66 69 70 74 77 77 80 80 84 87 87 89 90 91 92 91 91
259 254 246 243 240 244 250 246 235 229 224 211 206 210 210 209 206 203 205 203 201 202 200 199 194 197 203 191 203 224 210 197 212 213 208 204 194 193 207 232 239 302 282 268 2 177 168 159 158 153 149 146 142 135 130 125 119 112 104 101 98 92 85 74 66 63 65 63 65 71 73 77 77 73 78 87 90 91 92 94 94 92 91 90 89
262 261 251 245 244 246 250 250 244 237 228 218 213 211 207 208 209 206 207 204 203 204 202 202 198 199 206 204 215 229 214 211 212 202 208 207 196 191 199 209 192 196 219 226 167 127 151 160 158 155 155 153 148 142 136 130 125 119 114 109 104 99 88 78 65 58 62 57 57 71 79 81 78 70 70 86 95 94 95 96 96 95 92 91 90
259 262 256 247 244 244 247 247 245 242 236 226 216 209 207 212 212 208 209 208 206 206 203 203 202 204 216 221 221 223 218 217 208 203 204 197 201 200 202 204 190 191 199 207 204 143 151 169 163 159 162 164 159 150 145 141 138 133 129 126 118 112 99 94 72 55 59 50 48 68 84 85 81 69 65 82 100 101 101 100 97 96 94 92 91
256 258 258 251 244 240 242 246 247 247 245 238 226 216 212 217 215 210 212 211 208 208 205 205 205 209 222 226 223 225 221 214 209 208 205 203 208 204 204 203 188 192 186 190 209 171 164 180 173 173 172 172 175 167 168 169 167 166 169 173 161 166 159 130 97 58 50 48 48 75 92 91 84 70 63 83 107 112 111 104 98 99 99 94 92
258 257 256 254 248 241 240 243 243 245 248 246 238 226 217 220 218 212 213 211 207 207 208 209 210 213 222 222 224 228 220 214 215 209 204 213 215 206 204 200 194 201 184 190 215 192 182 190 179 191 193 189 203 206 210 213 208 207 204 195 193 203 172 134 116 113 142 135 142 136 117 108 93 72 68 91 110 115 112 107 107 109 106 101 97
257 258 258 259 255 249 245 242 241 245 247 244 242 233 223 225 224 217 213 212 207 206 208 211 213 216 219 220 224 228 219 214 217 209 207 219 222 211 203 196 195 205 191 192 218 206 193 197 186 201 213 212 216 215 217 222 217 220 218 203 198 191 157 135 138 152 143 132 133 137 136 130 105 78 78 98 108 109 109 114 123 122 113 108 103
255 261 261 260 259 254 249 246 246 249 246 241 240 236 229 231 232 226 219 215 208 205 209 210 211 212 215 219 223 229 225 219 220 215 210 217 221 213 208 201 192 207 206 193 204 207 198 203 203 212 222 224 219 209 208 215 216 215 213 206 194 176 158 150 155 150 126 113 114 124 137 142 123 92 84 97 101 100 103 114 124 124 118 116 114
261 265 264 260 258 255 250 249 248 248 246 243 241 239 234 234 237 233 226 221 212 208 211 208 208 210 209 212 218 226 231 227 224 221 217 214 213 216 216 208 192 198 214 204 201 205 198 196 205 220 229 224 216 213 210 212 215 208 201 200 188 172 163 157 158 152 133 118 112 115 131 147 136 106 94 94 89 87 89 95 103 110 118 125 127
263 264 267 263 257 256 252 249 246 243 243 243 241 241 238 236 238 234 227 222 216 213 216 211 209 212 207 207 213 218 225 228 225 225 225 213 211 222 223 216 203 194 204 213 209 205 201 197 200 210 218 215 214 219 220 215 211 205 197 193 183 170 164 161 164 162 148 139 133 124 129 145 139 119 115 106 91 87 89 90 92 95 107 122 129
264 264 267 264 258 256 253 249 246 242 240 241 239 238 238 240 241 235 227 220 214 213 219 218 212 210 206 205 208 212 217 224 222 225 227 216 215 223 221 220 215 200 197 210 212 204 204 208 206 204 205 211 214 210 215 216 207 205 199 187 177 170 167 165 167 167 161 154 146 137 135 142 147 139 133 123 104 101 103 102 102 101 107 118 125
270 267 266 266 259 256 253 250 248 245 241 239 237 235 236 240 239 235 227 219 211 209 216 219 215 213 210 203 202 211 218 221 221 223 222 217 218 221 220 223 218 208 202 203 208 206 204 211 210 204 202 209 215 206 208 216 205 197 192 180 172 170 171 170 168 168 163 155 147 141 141 148 156 151 143 138 128 125 122 119 117 115 114 117 120
272 269 267 268 265 260 256 251 248 246 243 238 235 232 234 239 236 230 224 215 206 205 211 215 216 218 218 213 208 207 212 215 214 214 214 214 216 217 218 219 216 214 208 200 204 209 204 209 214 209 202 202 211 210 207 210 198 189 185 176 171 174 178 176 169 168 161 153 152 151 152 158 160 156 152 154 148 141 137 130 124 120 116 115 115
276 271 267 267 267 264 261 256 249 247 245 239 234 231 232 239 236 227 222 214 205 202 207 213 216 220 221 220 217 213 211 210 205 201 204 209 210 211 213 215 215 213 210 203 205 214 207 204 213 211 199 194 201 204 203 204 193 183 178 172 176 185 185 181 174 170 165 158 160 164 167 168 163 160 161 161 155 148 142 135 127 122 120 119 118
279 275 270 268 268 265 261 257 250 247 246 241 236 233 232 237 237 230 223 217 213 207 210 218 221 223 223 221 221 221 217 209 206 207 207 203 201 205 210 214 216 210 211 206 202 216 216 202 204 208 200 192 193 197 198 197 186 176 176 177 186 193 186 185 183 175 171 166 169 174 175 172 165 165 168 165 158 149 139 131 124 122 122 121 118
277 275 271 269 269 266 261 259 253 247 245 241 237 233 232 236 238 233 226 224 222 218 220 225 224 224 225 222 221 223 222 217 218 224 221 210 201 202 205 211 215 207 209 206 198 211 218 202 193 202 206 190 185 197 193 185 181 177 183 188 195 196 189 189 187 182 178 173 173 175 173 170 166 167 169 166 156 146 136 128 124 123 122 120 118
277 277 275 272 270 267 265 264 254 245 241 235 233 233 232 236 239 235 232 232 231 228 227 225 217 220 226 224 220 221 225 225 226 227 225 218 204 199 203 211 212 204 206 207 199 206 214 206 194 197 207 193 184 194 191 182 181 184 193 196 200 203 195 191 188 184 182 175 173 174 171 168 168 167 165 161 154 145 137 130 126 124 124 123 120
277 277 276 277 272 264 266 263 250 251 247 229 229 235 232 236 240 238 237 238 238 236 232 223 212 218 228 227 223 223 224 224 225 224 220 217 209 202 203 207 206 206 210 207 200 204 210 208 201 197 200 197 189 187 186 184 182 186 197 201 207 208 198 194 190 186 184 178 174 175 174 170 167 167 162 159 155 148 141 134 131 129 128 127 124
275 271 269 276 271 259 262 257 245 255 254 226 226 233 232 236 242 240 238 235 234 235 232 227 220 223 229 228 226 227 224 222 223 223 219 216 213 207 204 202 203 208 211 204 199 204 208 205 203 200 196 194 192 183 179 191 194 195 201 205 212 209 197 195 193 189 187 181 179 178 176 172 168 168 166 162 159 152 146 140 138 137 136 136 134
270 264 259 262 264 259 257 255 245 242 236 222 225 232 233 237 243 242 237 230 228 230 231 229 226 228 231 230 229 229 224 221 223 222 218 213 208 209 206 203 204 204 203 202 199 199 207 207 199 201 201 191 189 186 186 203 208 206 211 212 211 206 198 197 195 193 191 183 183 182 178 176 173 172 170 165 161 155 150 148 147 147 148 148 147
271 267 260 257 261 262 258 257 250 236 228 224 226 231 233 237 243 241 234 229 226 227 228 229 228 229 230 229 228 228 224 221 223 223 217 208 204 206 203 197 201 203 201 204 204 198 201 206 197 200 204 190 186 189 192 210 215 209 215 216 209 205 199 196 196 196 194 185 184 185 181 181 179 176 173 168 164 159 156 157 158 159 161 161 160
273 268 263 259 260 262 260 259 255 244 234 229 228 230 231 235 240 237 231 228 224 224 227 229 230 230 229 230 227 226 226 223 224 223 215 209 206 208 205 195 194 200 200 201 204 200 196 198 197 202 204 191 191 194 196 212 218 212 216 215 209 206 199 197 199 197 194 188 186 186 185 184 183 180 176 170 166 164 164 166 168 170 171 171 169
274 272 267 261 260 261 260 258 257 251 243 236 232 233 234 236 237 234 229 227 226 230 234 234 234 232 231 233 229 227 228 226 224 218 211 209 210 211 208 200 196 199 199 199 203 202 197 194 196 201 200 193 195 198 198 211 219 215 214 213 208 206 202 200 201 199 194 189 188 188 187 187 186 184 181 175 171 171 172 174 176 177 178 177 174
275 275 276 271 266 266 264 261 259 254 248 242 238 238 238 237 237 233 228 227 227 231 235 235 233 231 231 233 230 228 228 226 226 220 212 208 212 217 210 201 205 206 202 203 203 201 197 195 196 199 201 200 198 195 195 209 220 215 209 211 209 205 206 206 203 201 196 190 191 191 188 190 189 187 185 181 178 178 178 181 181 181 182 181 178
279 276 278 276 272 270 268 265 262 257 251 245 241 241 241 238 236 232 227 226 228 230 232 232 230 228 229 230 230 228 226 225 224 220 214 209 208 216 210 201 210 213 207 209 207 202 199 198 198 196 199 205 202 192 192 207 221 215 202 205 211 207 206 210 208 204 199 194 194 194 192 192 192 191 189 186 185 185 185 186 185 185 185 185 184
286 281 278 277 276 272 270 268 265 261 255 249 244 241 241 239 235 233 230 228 228 231 233 231 228 227 228 229 228 226 224 223 222 216 214 213 211 210 207 206 213 215 214 216 214 205 198 196 200 199 196 202 204 192 189 208 222 213 194 196 210 211 208 213 213 207 203 199 197 196 195 195 195 194 192 191 191 191 191 191 190 191 191 190 190
282 278 277 279 279 274 269 268 267 262 255 251 248 242 239 239 235 232 231 230 231 234 235 231 228 228 230 231 229 226 224 222 220 218 215 217 218 212 208 212 213 213 220 223 220 211 201 196 200 203 197 198 204 196 188 208 219 201 183 194 211 214 212 214 217 214 207 204 202 200 198 198 199 198 196 196 197 197 198 198 197 197 197 198 198
281 278 278 279 277 273 269 266 265 261 255 252 250 245 240 237 234 230 228 232 232 231 234 234 231 228 231 234 231 227 225 221 221 223 220 221 223 217 214 218 215 213 220 223 220 212 204 199 199 203 202 198 200 197 189 203 215 194 180 202 218 217 215 215 217 218 213 208 207 205 202 202 202 202 201 201 202 203 204 204 204 205 205 205 205
273 277 281 283 281 277 274 271 267 262 258 254 250 247 243 239 236 232 230 233 232 228 231 234 231 229 231 233 231 227 226 225 224 226 224 224 226 220 217 221 219 215 219 222 219 209 199 201 199 197 202 198 194 197 194 199 212 199 184 204 224 219 216 219 219 219 217 213 212 209 207 206 205 205 205 205 207 209 210 210 210 211 211 212 214
271 273 278 281 282 281 279 277 274 270 266 261 253 247 245 243 239 236 234 233 230 227 230 232 229 229 229 229 229 228 227 226 224 222 221 223 224 222 220 221 219 216 218 222 221 211 199 201 200 193 198 202 197 198 197 196 208 205 187 198 220 214 210 215 218 221 218 215 215 214 211 210 209 209 209 209 211 212 214 216 216 219 220 221 225
281 284 282 277 278 281 279 274 272 271 270 266 259 252 248 245 239 234 233 233 231 228 228 230 229 229 229 228 230 230 224 220 220 221 221 222 223 223 221 219 217 215 218 220 218 213 204 199 200 199 201 205 202 200 197 193 202 206 192 196 206 202 201 203 209 223 226 219 217 217 215 215 214 214 214 214 215 217 219 221 223 225 228 231 236
289 293 292 282 275 276 276 272 271 272 272 269 264 260 255 249 239 232 230 232 233 231 229 232 231 229 231 232 232 230 221 219 225 225 222 220 220 221 219 215 214 215 218 218 213 212 210 201 200 203 201 201 202 201 197 192 195 200 196 197 199 197 198 198 201 220 230 224 218 216 216 217 217 218 220 220 220 222 224 226 229 232 235 239 243
292 291 293 290 282 275 273 274 274 274 272 269 266 264 262 254 244 237 236 237 238 237 235 233 230 228 231 232 229 226 221 221 228 226 219 218 217 216 217 215 216 218 215 213 209 208 213 209 202 202 203 201 201 201 197 193 193 197 197 197 198 197 198 196 199 217 229 227 221 219 219 219 220 221 224 225 226 227 229 230 232 235 238 242 247
297 289 286 290 290 284 279 279 278 274 270 267 265 265 264 257 248 242 243 243 243 242 238 231 226 227 231 231 229 227 223 222 226 222 214 216 215 213 217 218 220 224 219 214 211 209 213 214 206 203 203 200 199 199 196 192 193 198 200 196 195 197 198 196 198 215 231 231 225 224 224 225 226 227 228 230 229 229 231 232 232 234 237 241 246
303 294 287 283 286 288 286 284 282 277 271 267 264 265 264 258 252 248 247 245 242 242 240 233 230 232 232 231 231 230 225 222 224 221 216 217 216 215 219 217 216 225 223 216 214 213 214 214 209 204 201 200 201 199 195 195 197 201 202 198 196 195 196 199 200 208 226 233 228 224 225 227 228 229 231 231 231 231 230 230 231 233 236 241 247
308 300 293 285 280 282 285 285 283 277 272 268 265 262 260 257 255 252 249 245 240 241 242 235 232 235 232 228 227 225 223 223 223 221 219 220 219 218 222 221 216 220 221 216 215 217 216 216 211 201 195 198 198 194 195 202 203 201 201 198 197 197 197 202 205 204 212 225 228 227 229 230 230 232 233 232 231 229 227 229 231 234 238 244 250
314 307 302 294 284 280 279 280 280 279 275 272 268 263 255 251 251 249 248 249 245 245 244 233 229 235 231 226 228 226 225 225 223 220 221 223 223 221 224 225 221 223 225 219 217 219 219 223 217 201 194 196 196 195 199 205 203 200 198 197 197 198 198 201 207 209 208 211 214 219 226 232 234 234 233 233 231 226 226 230 234 240 245 249 254
325 317 312 307 297 287 280 275 272 275 276 274 272 267 257 249 247 248 251 254 251 250 249 238 231 233 228 226 230 229 227 224 220 220 221 222 222 220 223 228 228 229 229 223 220 221 220 221 220 203 197 197 196 198 201 200 198 199 199 199 199 200 202 204 209 212 209 208 209 212 218 228 234 232 229 235 234 228 231 238 240 243 245 248 255
341 332 325 320 312 301 291 280 271 267 270 275 272 264 257 249 246 249 253 255 252 249 247 242 236 231 227 227 228 227 227 223 218 218 219 219 221 220 221 226 227 227 227 225 225 225 220 221 225 217 207 201 196 197 201 199 198 200 200 201 201 202 208 212 215 215 211 208 208 209 213 218 221 218 220 232 233 226 230 241 246 248 251 256 262
356 349 342 336 328 317 303 290 278 265 263 269 272 265 256 248 244 246 250 253 253 248 244 243 240 234 229 228 229 228 226 222 216 215 216 217 218 219 220 223 225 225 224 224 226 227 227 226 227 226 219 209 201 200 202 200 200 201 200 202 203 204 209 214 216 217 218 213 205 206 213 215 212 210 211 225 233 229 230 240 248 254 260 264 269
3 360 355 350 345 338 324 305 289 275 265 264 268 267 259 250 246 246 245 246 247 244 244 243 238 235 232 230 232 230 224 219 216 214 215 216 217 219 222 224 225 224 222 221 223 227 229 230 228 227 225 217 210 206 200 196 198 198 197 198 199 200 204 210 213 213 212 209 200 200 212 216 212 212 213 222 234 233 228 233 242 250 257 263 267
5 4 1 358 354 350 345 331 308 290 278 270 266 264 261 255 250 247 245 245 242 241 244 240 232 232 233 231 229 225 217 216 217 213 212 215 216 217 218 219 221 222 222 223 225 227 228 228 228 226 223 221 219 213 207 206 204 200 200 201 199 198 197 200 207 207 199 197 195 198 209 217 218 218 218 222 229 229 224 230 242 251 258 267 273
5 7 7 4 360 355 351 346 334 314 297 285 274 268 263 260 258 253 247 245 242 239 240 237 231 232 234 230 226 222 218 219 221 212 208 210 215 214 211 213 220 221 220 223 225 227 229 228 227 225 222 221 221 216 214 214 212 210 213 214 211 207 202 199 203 207 207 210 208 204 208 219 225 228 225 210 211 216 221 236 255 267 272 276 280
2 8 10 9 6 3 357 353 348 337 323 310 295 282 273 267 264 259 251 247 242 237 236 232 224 224 228 227 224 219 215 217 219 210 202 203 208 209 202 201 213 219 223 227 226 225 227 228 229 230 227 226 225 218 215 215 217 220 223 223 218 212 207 205 205 206 216 229 228 222 221 225 230 237 237 215 202 227 243 248 258 272 284 289 289
359 3 7 10 11 10 6 2 357 349 341 334 321 306 294 283 273 264 258 252 242 234 229 219 210 214 220 222 222 218 212 214 212 200 191 194 200 202 192 191 211 226 230 230 225 221 222 225 227 227 226 225 224 219 217 218 220 222 221 221 221 218 213 211 209 208 215 226 234 234 229 224 220 221 221 221 234 241 237 249 266 281 299 305 308
357 358 1 5 9 12 12 9 6 0 354 349 342 331 318 307 293 277 267 255 239 234 226 214 213 222 223 220 222 221 216 211 199 185 183 192 201 206 202 205 226 240 239 234 230 226 224 223 220 217 217 221 221 218 219 221 217 213 209 208 213 216 214 211 211 210 211 217 225 224 214 211 216 218 223 235 239 212 200 224 276 304 317 315 323
Height
1546 1546 1548 1548 1548 1548 1548 1548 1549 1550 1551 1554 1555 1556 1557 1559 1559 1560 1561 1563 1563 1564 1564 1563 1564 1564 1565 1565 1565 1565 1565 1565 1566 1567 1566 1564 1562 1561 1561 1560 1560 1560 1560 1560 1560 1560 1560 1560 1560 1560 1560 1561 1561 1561 1561 1561 1561 1561 1562 1562 1562 1562 1562 1562 1563 1563 1563 1562 1562 1562 1561 1561 1560 1560 1559 1559 1559 1558 1558 1558 1557 1557 1556 1556 1555
1545 1546 1547 1548 1548 1548 1548 1547 1548 1550 1551 1552 1554 1555 1556 1557 1558 1559 1561 1562 1563 1563 1562 1563 1563 1563 1564 1564 1563 1564 1564 1565 1566 1566 1566 1564 1562 1561 1561 1560 1560 1560 1560 1560 1560 1560 1560 1560 1560 1560 1561 1561 1562 1562 1562 1562 1562 1562 1562 1563 1563 1563 1563 1563 1564 1564 1563 1563 1563 1563 1562 1562 1561 1561 1560 1560 1560 1559 1559 1559 1558 1558 1558 1557 1557
1543 1545 1546 1547 1548 1548 1547 1547 1547 1548 1549 1551 1553 1554 1555 1556 1557 1559 1560 1562 1562 1562 1562 1562 1563 1563 1563 1563 1563 1563 1563 1564 1564 1565 1565 1564 1562 1561 1560 1560 1560 1560 1560 1560 1560 1560 1560 1560 1560 1560 1561 1561 1562 1562 1562 1563 1563 1563 1563 1563 1563 1564 1564 1564 1564 1564 1564 1564 1564 1563 1563 1563 1562 1562 1561 1561 1561 1561 1560 1560 1560 1559 1559 1559 1558
1543 1544 1545 1547 1548 1548 1547 1546 1546 1547 1548 1550 1552 1553 1554 1555 1556 1558 1559 1560 1561 1561 1561 1562 1562 1562 1562 1562 1562 1562 1563 1563 1563 1563 1563 1563 1562 1561 1560 1560 1560 1560 1560 1560 1560 1560 1560 1560 1560 1560 1561 1561 1562 1562 1563 1563 1563 1564 1564 1564 1564 1565 1565 1565 1565 1565 1565 1565 1564 1564 1564 1563 1563 1562 1562 1562 1562 1562 1561 1561 1561 1561 1560 1560 1560
1541 1543 1543 1545 1546 1546 1546 1546 1546 1546 1547 1549 1551 1552 1553 1553 1555 1556 1557 1558 1559 1560 1560 1561 1561 1561 1561 1560 1561 1562 1562 1562 1562 1561 1562 1562 1562 1562 1561 1560 1560 1560 1560 1560 1560 1560 1560 1560 1560 1560 1561 1561 1562 1562 1563 1563 1564 1564 1564 1565 1565 1565 1566 1566 1566 1566 1565 1565 1565 1565 1564 1564 1563 1563 1563 1563 1563 1563 1563 1562 1562 1562 1562 1562 1561
1540 1541 1542 1543 1544 1544 1545 1547 1547 1546 1546 1547 1549 1551 1552 1552 1553 1555 1555 1556 1558 1558 1559 1559 1560 1560 1559 1560 1561 1561 1560 1561 1560 1560 1560 1561 1561 1562 1561 1561 1560 1560 1560 1560 1560 1559 1560 1560 1560 1560 1561 1561 1562 1563 1563 1564 1564 1565 1565 1565 1566 1566 1566 1566 1566 1566 1566 1566 1566 1565 1565 1565 1564 1564 1564 1563 1563 1563 1563 1563 1563 1563 1563 1563 1563
1540 1540 1541 1542 1543 1543 1544 1546 1546 1545 1545 1546 1548 1550 1551 1551 1552 1553 1553 1554 1556 1557 1557 1558 1558 1558 1558 1559 1559 1559 1559 1560 1559 1559 1560 1560 1560 1561 1561 1561 1560 1560 1560 1560 1559 1559 1560 1560 1560 1560 1561 1561 1562 1563 1564 1564 1565 1565 1565 1566 1566 1566 1567 1567 1567 1567 1567 1566 1566 1566 1566 1566 1565 1565 1564 1564 1564 1564 1564 1564 1564 1564 1564 1564 1564
1539 1540 1541 1542 1542 1543 1543 1544 1546 1546 1545 1546 1548 1549 1549 1550 1551 1552 1552 1553 1554 1555 1556 1557 1557 1557 1557 1557 1558 1558 1558 1558 1558 1559 1559 1559 1560 1560 1560 1561 1561 1561 1561 1560 1560 1559 1560 1560 1560 1560 1561 1562 1562 1563 1564 1564 1565 1565 1566 1566 1566 1567 1567 1567 1567 1567 1567 1567 1567 1567 1567 1567 1566 1566 1565 1565 1565 1565 1565 1565 1565 1565 1565 1565 1565
1539 1539 1540 1541 1541 1542 1543 1543 1545 1547 1546 1546 1547 1548 1548 1549 1549 1550 1550 1551 1553 1554 1554 1555 1555 1555 1555 1555 1556 1556 1557 1557 1557 1558 1558 1558 1559 1559 1560 1560 1560 1561 1561 1560 1560 1559 1560 1560 1561 1561 1561 1562 1562 1563 1564 1564 1565 1565 1566 1566 1566 1567 1567 1567 1567 1567 1567 1567 1567 1567 1568 1567 1567 1567 1566 1566 1565 1566 1566 1566 1566 1566 1566 1566 1566
1538 1538 1538 1539 1539 1540 1542 1542 1543 1546 1547 1548 1548 1548 1547 1547 1547 1547 1548 1549 1551 1552 1553 1554 1554 1554 1554 1554 1554 1555 1555 1555 1555 1556 1557 1558 1558 1558 1559 1558 1559 1559 1559 1560 1560 1560 1560 1560 1561 1561 1561 1562 1562 1563 1564 1564 1565 1565 1565 1566 1566 1567 1567 1568 1568 1568 1568 1568 1568 1568 1568 1568 1568 1567 1567 1567 1566 1566 1566 1567 1567 1567 1567 1567 1567
1536 1537 1537 1538 1539 1539 1540 1540 1540 1542 1544 1548 1549 1547 1546 1545 1545 1545 1546 1547 1548 1550 1552 1552 1553 1553 1552 1553 1553 1553 1554 1554 1554 1555 1556 1556 1556 1557 1557 1558 1558 1558 1558 1559 1559 1560 1560 1560 1560 1561 1561 1562 1562 1563 1564 1564 1564 1565 1565 1566 1566 1567 1567 1567 1568 1568 1568 1568 1568 1568 1568 1568 1568 1568 1568 1567 1567 1567 1567 1567 1568 1568 1567 1567 1568
1535 1536 1537 1537 1538 1539 1539 1540 1540 1540 1540 1543 1545 1545 1544 1543 1543 1543 1544 1544 1546 1548 1550 1551 1551 1551 1551 1551 1552 1552 1552 1552 1553 1554 1554 1554 1555 1555 1555 1556 1557 1557 1557 1558 1559 1559 1559 1559 1560 1560 1561 1561 1562 1562 1563 1563 1564 1565 1565 1566 1566 1566 1567 1567 1567 1568 1568 1568 1568 1568 1568 1568 1568 1568 1568 1568 1568 1568 1568 1568 1568 1568 1568 1568 1568
1534 1535 1536 1536 1536 1537 1538 1538 1538 1538 1538 1538 1540 1541 1541 1541 1542 1542 1542 1543 1544 1546 1547 1549 1549 1550 1550 1550 1550 1551 1551 1551 1552 1553 1553 1553 1554 1554 1554 1555 1556 1556 1556 1557 1558 1558 1558 1559 1560 1560 1560 1561 1561 1562 1562 1563 1564 1564 1565 1566 1566 1566 1567 1567 1567 1567 1567 1568 1568 1568 1568 1568 1569 1569 1569 1569 1568 1568 1568 1568 1568 1568 1568 1568 1569
1533 1534 1534 1534 1534 1534 1535 1536 1536 1536 1536 1535 1536 1537 1538 1540 1541 1541 1541 1542 1543 1544 1545 1546 1548 1548 1549 1549 1549 1549 1550 1550 1551 1552 1552 1553 1553 1553 1553 1554 1555 1555 1556 1556 1557 1557 1558 1559 1560 1559 1559 1560 1560 1561 1562 1562 1563 1564 1564 1565 1566 1566 1566 1567 1567 1567 1567 1567 1568 1568 1568 1568 1569 1569 1569 1569 1568 1568 1569 1568 1568 1568 1569 1569 1569
1532 1532 1531 1531 1531 1531 1532 1534 1534 1534 1534 1534 1534 1534 1534 1537 1539 1540 1540 1541 1542 1543 1543 1544 1546 1547 1548 1548 1547 1548 1548 1549 1550 1550 1551 1551 1552 1552 1552 1552 1553 1554 1555 1556 1556 1556 1557 1558 1559 1559 1559 1560 1560 1560 1561 1561 1562 1563 1564 1565 1565 1566 1566 1567 1567 1567 1567 1567 1567 1568 1568 1569 1569 1569 1569 1569 1569 1569 1569 1569 1569 1569 1569 1570 1570
1530 1529 1529 1528 1528 1528 1529 1530 1531 1532 1532 1532 1532 1532 1532 1534 1537 1539 1539 1540 1540 1541 1541 1542 1544 1546 1546 1546 1546 1546 1546 1546 1547 1548 1549 1550 1550 1550 1551 1551 1552 1553 1554 1555 1555 1555 1556 1557 1557 1558 1558 1559 1559 1560 1560 1561 1562 1562 1563 1564 1565 1566 1566 1566 1567 1567 1567 1567 1567 1567 1568 1568 1569 1569 1569 1569 1569 1569 1570 1570 1570 1570 1570 1570 1570
1527 1527 1526 1526 1526 1526 1526 1527 1528 1529 1529 1530 1530 1530 1530 1532 1536 1539 1539 1538 1538 1539 1539 1540 1542 1543 1543 1544 1544 1544 1544 1544 1545 1546 1547 1548 1549 1549 1550 1550 1551 1551 1552 1553 1554 1554 1555 1556 1556 1557 1558 1558 1558 1559 1560 1560 1561 1562 1563 1564 1564 1565 1566 1566 1566 1566 1567 1567 1567 1567 1568 1568 1569 1569 1569 1569 1570 1570 1570 1570 1570 1570 1571 1571 1571
1525 1525 1525 1524 1524 1524 1524 1524 1525 1525 1526 1527 1527 1528 1528 1529 1533 1537 1538 1535 1535 1536 1536 1538 1539 1540 1541 1542 1542 1542 1542 1543 1544 1545 1546 1547 1548 1548 1548 1548 1549 1550 1551 1552 1553 1553 1554 1555 1555 1556 1556 1557 1557 1558 1559 1559 1560 1561 1562 1563 1564 1565 1566 1566 1566 1566 1567 1567 1567 1567 1568 1568 1568 1569 1569 1570 1570 1571 1571 1571 1571 1571 1571 1571 1571
1523 1523 1523 1522 1521 1522 1522 1521 1522 1522 1523 1524 1525 1526 1527 1528 1530 1532 1533 1532 1531 1533 1534 1535 1537 1538 1539 1540 1540 1541 1541 1542 1543 1544 1545 1545 1546 1546 1547 1547 1548 1549 1550 1551 1552 1552 1553 1553 1554 1554 1555 1556 1557 1557 1558 1559 1560 1561 1562 1563 1564 1564 1565 1565 1566 1566 1566 1567 1567 1567 1568 1568 1568 1569 1570 1570 1571 1571 1571 1572 1572 1572 1572 1572 1572
1521 1521 1520 1520 1519 1519 1519 1519 1519 1519 1520 1521 1522 1524 1525 1526 1526 1527 1528 1529 1530 1531 1532 1533 1535 1536 1537 1538 1539 1540 1541 1541 1542 1543 1543 1544 1544 1545 1545 1546 1546 1547 1548 1549 1551 1551 1551 1552 1553 1553 1554 1555 1556 1556 1557 1558 1559 1561 1561 1562 1563 1564 1564 1564 1565 1566 1566 1566 1567 1567 1568 1568 1569 1569 1570 1570 1571 1571 1572 1572 1572 1572 1572 1573 1573
1519 1518 1518 1517 1516 1516 1515 1515 1516 1515 1516 1517 1519 1521 1523 1523 1524 1525 1526 1527 1528 1529 1530 1530 1532 1534 1535 1536 1537 1539 1540 1540 1540 1542 1542 1542 1542 1543 1543 1544 1545 1546 1547 1548 1550 1550 1551 1552 1552 1553 1553 1554 1555 1555 1556 1557 1559 1560 1561 1562 1563 1563 1564 1564 1565 1565 1566 1566 1567 1567 1568 1568 1569 1569 1570 1570 1571 1571 1572 1572 1572 1572 1573 1573 1573
1516 1516 1515 1515 1514 1513 1512 1512 1512 1512 1512 1514 1516 1518 1520 1521 1523 1524 1525 1526 1527 1527 1527 1528 1530 1532 1533 1534 1535 1536 1537 1538 1539 1540 1540 1540 1540 1541 1541 1542 1543 1545 1545 1547 1548 1549 1550 1550 1551 1552 1552 1553 1554 1554 1555 1557 1557 1558 1560 1561 1562 1563 1563 1564 1564 1565 1565 1566 1566 1567 1568 1568 1569 1569 1570 1570 1571 1571 1572 1572 1572 1573 1573 1573 1574
1514 1514 1513 1512 1512 1511 1510 1509 1509 1509 1510 1511 1513 1515 1518 1519 1521 1523 1524 1525 1526 1526 1526 1526 1528 1530 1531 1532 1533 1534 1534 1535 1537 1538 1538 1538 1538 1539 1540 1541 1542 1543 1544 1545 1546 1547 1548 1549 1549 1550 1551 1552 1553 1553 1554 1555 1555 1557 1558 1559 1561 1562 1562 1563 1564 1564 1565 1565 1566 1567 1567 1568 1568 1569 1569 1570 1570 1571 1571 1572 1572 1573 1573 1574 1574
1513 1512 1511 1510 1510 1509 1508 1507 1506 1507 1508 1508 1510 1512 1515 1517 1518 1520 1521 1522 1523 1524 1525 1525 1526 1527 1528 1529 1530 1531 1532 1533 1535 1536 1536 1537 1537 1538 1538 1540 1541 1542 1543 1544 1545 1546 1547 1547 1548 1549 1550 1551 1552 1552 1553 1553 1554 1556 1557 1558 1559 1561 1562 1562 1563 1564 1564 1565 1566 1566 1567 1567 1568 1569 1569 1570 1570 1571 1571 1572 1572 1573 1573 1574 1575
1511 1510 1509 1509 1508 1507 1506 1505 1505 1505 1506 1507 1508 1510 1512 1513 1515 1516 1517 1518 1520 1521 1523 1523 1524 1525 1526 1527 1528 1529 1530 1531 1533 1534 1535 1535 1535 1536 1537 1538 1539 1540 1542 1543 1543 1545 1546 1546 1546 1547 1548 1549 1551 1552 1552 1552 1553 1555 1556 1557 1558 1559 1561 1562 1562 1563 1564 1564 1565 1566 1567 1567 1568 1568 1569 1569 1570 1570 1571 1571 1572 1573 1573 1574 1575
1509 1507 1507 1506 1506 1505 1504 1504 1503 1503 1504 1505 1506 1507 1509 1510 1511 1513 1514 1516 1519 1520 1521 1521 1521 1522 1523 1524 1526 1527 1528 1529 1531 1532 1533 1533 1533 1535 1536 1537 1538 1539 1540 1541 1541 1543 1543 1544 1545 1546 1547 1548 1550 1551 1551 1551 1552 1554 1555 1556 1557 1558 1559 1561 1562 1563 1563 1564 1564 1565 1566 1567 1567 1568 1568 1569 1569 1570 1570 1571 1572 1573 1573 1574 1574
1508 1506 1504 1503 1503 1503 1502 1502 1501 1501 1502 1503 1504 1505 1506 1507 1508 1509 1511 1513 1516 1518 1519 1519 1519 1519 1521 1522 1524 1525 1526 1528 1529 1530 1531 1531 1532 1533 1534 1535 1537 1537 1538 1539 1540 1540 1541 1542 1544 1545 1545 1547 1548 1549 1550 1550 1551 1552 1553 1554 1556 1557 1558 1560 1561 1562 1562 1563 1564 1564 1565 1566 1566 1567 1568 1568 1569 1569 1570 1571 1572 1572 1573 1574 1574
1506 1505 1503 1500 1500 1500 1500 1500 1500 1499 1500 1500 1501 1502 1503 1504 1505 1506 1507 1509 1512 1514 1515 1515 1516 1517 1519 1520 1522 1524 1525 1526 1527 1528 1529 1530 1531 1532 1532 1533 1535 1536 1536 1537 1538 1539 1540 1541 1542 1543 1544 1545 1546 1547 1548 1548 1549 1551 1552 1553 1554 1555 1557 1558 1559 1561 1562 1562 1563 1563 1564 1565 1566 1566 1567 1568 1568 1569 1570 1571 1571 1572 1572 1573 1573
1505 1504 1502 1500 1498 1497 1498 1498 1498 1498 1498 1498 1499 1500 1501 1502 1502 1503 1504 1506 1507 1509 1511 1512 1513 1515 1517 1518 1520 1521 1523 1523 1524 1526 1528 1528 1529 1530 1530 1532 1533 1534 1534 1535 1536 1537 1538 1539 1540 1542 1542 1543 1544 1546 1547 1547 1548 1550 1551 1552 1553 1554 1556 1557 1558 1559 1560 1561 1562 1562 1563 1564 1565 1566 1566 1567 1568 1569 1569 1570 1571 1571 1572 1572 1573
1505 1503 1502 1500 1497 1495 1496 1496 1496 1496 1496 1496 1497 1497 1498 1500 1500 1501 1502 1503 1504 1506 1507 1509 1510 1513 1514 1515 1517 1519 1521 1521 1522 1524 1525 1526 1527 1528 1528 1530 1532 1532 1533 1534 1534 1535 1536 1537 1539 1540 1541 1542 1542 1544 1546 1546 1547 1549 1550 1550 1551 1553 1554 1556 1557 1558 1559 1560 1561 1561 1562 1563 1564 1565 1566 1566 1567 1568 1569 1569 1570 1571 1571 1572 1572
1504 1503 1501 1499 1496 1495 1495 1495 1495 1495 1494 1494 1494 1495 1496 1497 1499 1500 1501 1501 1502 1503 1505 1506 1507 1509 1511 1513 1515 1516 1518 1519 1520 1521 1522 1524 1525 1525 1526 1528 1529 1530 1531 1532 1533 1533 1534 1535 1537 1538 1540 1541 1542 1543 1545 1546 1546 1548 1549 1550 1550 1551 1553 1554 1555 1557 1558 1559 1560 1560 1561 1562 1563 1564 1565 1566 1567 1567 1568 1569 1569 1570 1571 1571 1572
1503 1502 1499 1497 1496 1495 1494 1494 1493 1493 1493 1493 1493 1493 1493 1493 1495 1498 1498 1498 1499 1500 1502 1503 1504 1506 1508 1510 1512 1514 1516 1517 1518 1518 1520 1521 1522 1523 1524 1525 1526 1528 1530 1531 1532 1532 1532 1533 1535 1537 1539 1540 1541 1542 1544 1544 1545 1546 1548 1549 1549 1550 1551 1553 1554 1555 1556 1557 1558 1559 1560 1561 1562 1563 1564 1565 1566 1567 1568 1568 1569 1569 1570 1571 1571
1501 1500 1498 1496 1495 1494 1493 1493 1492 1492 1492 1492 1491 1491 1491 1491 1492 1494 1496 1495 1496 1497 1499 1500 1501 1503 1505 1507 1509 1511 1512 1514 1515 1516 1517 1518 1519 1521 1522 1523 1524 1526 1528 1530 1531 1531 1531 1532 1533 1535 1536 1538 1539 1541 1543 1542 1543 1545 1547 1547 1547 1548 1550 1551 1552 1554 1555 1556 1557 1558 1559 1560 1561 1562 1563 1564 1565 1566 1567 1568 1568 1569 1569 1570 1571
1498 1498 1496 1495 1493 1492 1491 1491 1491 1491 1491 1491 1490 1489 1489 1489 1490 1491 1492 1492 1493 1494 1495 1497 1498 1500 1502 1504 1505 1507 1509 1511 1513 1513 1514 1515 1517 1518 1520 1521 1522 1523 1525 1527 1528 1528 1529 1530 1531 1533 1534 1535 1537 1540 1541 1540 1541 1543 1545 1545 1545 1547 1548 1549 1550 1552 1553 1554 1556 1557 1558 1559 1560 1561 1562 1563 1564 1565 1566 1566 1567 1568 1569 1569 1570
1495 1495 1495 1493 1492 1491 1490 1489 1489 1490 1489 1489 1489 1488 1487 1487 1487 1488 1489 1489 1490 1491 1492 1493 1496 1497 1499 1501 1502 1505 1507 1509 1510 1511 1511 1512 1514 1515 1516 1518 1519 1521 1523 1524 1524 1526 1527 1528 1529 1531 1532 1533 1535 1537 1539 1539 1540 1541 1543 1544 1544 1545 1547 1548 1549 1550 1551 1553 1554 1555 1557 1557 1559 1560 1560 1562 1562 1563 1564 1565 1566 1567 1567 1568 1569
1493 1493 1493 1492 1490 1489 1488 1487 1487 1487 1487 1488 1488 1487 1486 1485 1485 1486 1486 1486 1487 1488 1489 1491 1493 1494 1496 1497 1499 1502 1504 1507 1508 1508 1509 1510 1511 1513 1514 1515 1517 1519 1521 1522 1522 1523 1525 1526 1528 1529 1530 1531 1532 1534 1536 1538 1539 1540 1542 1544 1544 1545 1546 1547 1548 1549 1550 1551 1552 1554 1555 1556 1557 1558 1559 1560 1561 1562 1563 1563 1564 1565 1566 1567 1567
1490 1490 1490 1490 1489 1488 1487 1486 1486 1485 1485 1487 1488 1487 1485 1484 1484 1484 1483 1483 1484 1485 1487 1488 1490 1491 1492 1493 1495 1498 1501 1503 1504 1505 1506 1507 1508 1510 1511 1513 1515 1517 1519 1519 1520 1521 1523 1524 1525 1527 1528 1529 1530 1532 1534 1536 1538 1539 1541 1542 1543 1544 1545 1547 1548 1548 1548 1550 1551 1552 1553 1554 1555 1556 1557 1558 1559 1560 1561 1562 1563 1564 1564 1565 1565
1489 1488 1488 1488 1488 1487 1485 1485 1485 1484 1483 1484 1486 1485 1484 1484 1483 1482 1481 1481 1482 1482 1484 1486 1488 1488 1489 1491 1492 1495 1497 1498 1500 1502 1503 1505 1506 1507 1509 1511 1513 1514 1515 1516 1518 1520 1521 1522 1523 1524 1525 1526 1528 1530 1532 1534 1536 1538 1540 1541 1542 1543 1544 1545 1547 1546 1546 1548 1549 1550 1551 1552 1553 1554 1555 1556 1557 1558 1559 1560 1561 1562 1562 1563 1564
1487 1486 1486 1486 1486 1485 1484 1484 1484 1483 1482 1481 1482 1482 1482 1482 1481 1481 1480 1479 1479 1480 1481 1484 1486 1487 1488 1489 1490 1492 1494 1495 1497 1499 1501 1503 1504 1506 1507 1509 1510 1511 1513 1514 1516 1517 1518 1519 1521 1522 1524 1525 1526 1527 1530 1532 1534 1536 1538 1540 1541 1542 1543 1544 1545 1545 1545 1546 1547 1548 1550 1551 1552 1553 1554 1555 1555 1556 1557 1558 1559 1560 1560 1561 1561
1486 1485 1484 1483 1483 1482 1482 1483 1483 1482 1480 1479 1478 1478 1478 1478 1478 1478 1478 1476 1477 1478 1479 1481 1483 1484 1485 1487 1488 1489 1491 1492 1494 1496 1499 1500 1502 1504 1505 1506 1507 1508 1510 1512 1514 1515 1516 1516 1517 1519 1522 1523 1524 1526 1528 1531 1532 1534 1536 1538 1539 1540 1541 1542 1543 1544 1543 1544 1545 1547 1548 1549 1550 1550 1551 1552 1553 1554 1555 1556 1557 1557 1558 1559 1559
1485 1484 1482 1481 1480 1480 1480 1480 1481 1480 1478 1476 1476 1476 1476 1475 1475 1475 1475 1474 1474 1475 1476 1478 1480 1481 1483 1484 1485 1487 1489 1489 1491 1494 1496 1498 1499 1501 1503 1504 1505 1506 1507 1510 1513 1514 1514 1513 1514 1518 1520 1521 1522 1524 1526 1528 1529 1532 1534 1536 1537 1538 1539 1540 1541 1543 1543 1543 1544 1545 1545 1546 1547 1548 1549 1550 1551 1552 1553 1554 1554 1555 1556 1557 1557
1484 1482 1481 1480 1479 1478 1478 1478 1478 1477 1476 1475 1474 1474 1474 1473 1473 1473 1473 1474 1474 1474 1474 1475 1477 1478 1480 1483 1484 1485 1487 1487 1489 1491 1494 1495 1497 1499 1501 1502 1504 1505 1506 1508 1511 1512 1512 1512 1513 1516 1518 1520 1521 1523 1524 1526 1528 1530 1532 1533 1535 1536 1538 1539 1540 1541 1542 1542 1543 1543 1544 1544 1545 1546 1547 1548 1549 1550 1551 1551 1552 1553 1554 1554 1554
1484 1481 1479 1478 1477 1476 1475 1475 1475 1474 1473 1473 1472 1471 1472 1472 1471 1471 1471 1472 1473 1473 1473 1473 1474 1476 1478 1480 1482 1483 1485 1486 1487 1489 1491 1493 1494 1496 1498 1500 1502 1504 1504 1506 1508 1509 1509 1510 1512 1514 1516 1518 1520 1521 1523 1524 1526 1528 1529 1531 1532 1534 1535 1536 1537 1538 1539 1540 1541 1542 1543 1543 1544 1545 1546 1546 1546 1547 1548 1549 1550 1551 1551 1552 1552
1483 1481 1478 1477 1475 1474 1472 1472 1472 1471 1470 1469 1468 1467 1468 1469 1469 1468 1468 1469 1470 1471 1472 1472 1472 1474 1476 1478 1479 1481 1483 1485 1486 1487 1489 1491 1492 1494 1496 1498 1500 1501 1502 1504 1505 1506 1507 1509 1510 1512 1514 1516 1517 1519 1521 1522 1523 1525 1527 1528 1530 1531 1532 1533 1534 1536 1536 1537 1539 1540 1542 1542 1542 1544 1546 1545 1544 1544 1545 1547 1548 1548 1549 1549 1550
1484 1481 1478 1475 1473 1472 1470 1469 1469 1469 1467 1466 1464 1463 1464 1465 1465 1466 1466 1467 1469 1470 1471 1471 1472 1473 1474 1475 1477 1479 1481 1484 1484 1484 1486 1488 1490 1492 1494 1496 1497 1499 1500 1502 1503 1504 1505 1507 1508 1510 1511 1513 1515 1516 1518 1519 1521 1522 1524 1526 1527 1529 1530 1531 1533 1534 1533 1534 1537 1538 1540 1541 1541 1543 1545 1543 1541 1542 1543 1544 1545 1546 1546 1547 1547
1484 1481 1478 1475 1472 1470 1469 1467 1467 1466 1465 1464 1462 1461 1461 1461 1462 1463 1463 1466 1468 1469 1470 1471 1471 1472 1473 1474 1475 1477 1480 1482 1482 1481 1483 1485 1487 1489 1491 1493 1495 1496 1497 1499 1500 1501 1502 1504 1505 1507 1509 1511 1512 1514 1515 1516 1518 1520 1521 1523 1525 1527 1528 1529 1530 1531 1531 1532 1535 1536 1538 1540 1540 1541 1542 1540 1538 1540 1541 1542 1543 1544 1544 1545 1545
1486 1482 1478 1475 1472 1470 1468 1466 1465 1464 1463 1461 1460 1459 1459 1459 1459 1459 1460 1463 1465 1466 1467 1469 1469 1470 1471 1472 1474 1476 1478 1480 1479 1478 1480 1483 1485 1487 1489 1491 1492 1493 1494 1496 1498 1499 1500 1501 1503 1505 1506 1508 1510 1512 1514 1514 1516 1517 1518 1520 1521 1523 1525 1526 1527 1528 1529 1530 1532 1533 1536 1537 1538 1538 1539 1538 1537 1538 1539 1540 1541 1542 1542 1542 1542
1488 1484 1480 1477 1473 1470 1468 1465 1463 1462 1461 1459 1458 1457 1457 1456 1456 1456 1457 1459 1461 1462 1464 1465 1466 1467 1468 1470 1473 1474 1475 1476 1476 1477 1478 1481 1483 1485 1486 1487 1488 1490 1492 1494 1496 1497 1499 1500 1502 1503 1504 1506 1507 1509 1511 1513 1514 1515 1516 1518 1519 1520 1522 1523 1524 1526 1527 1528 1529 1531 1533 1534 1534 1535 1536 1536 1536 1537 1537 1538 1539 1539 1539 1539 1539
1490 1486 1482 1479 1476 1472 1469 1465 1462 1460 1459 1457 1456 1455 1454 1453 1453 1453 1453 1454 1456 1458 1460 1462 1463 1463 1464 1467 1471 1472 1472 1473 1474 1475 1477 1479 1482 1483 1484 1485 1486 1488 1490 1492 1494 1496 1497 1499 1500 1501 1502 1504 1505 1506 1508 1510 1511 1512 1514 1516 1517 1518 1520 1521 1522 1524 1525 1525 1527 1530 1531 1531 1532 1534 1535 1535 1535 1535 1535 1536 1537 1537 1537 1537 1537
1492 1489 1485 1482 1479 1475 1471 1467 1464 1461 1458 1456 1454 1453 1452 1451 1450 1450 1450 1452 1454 1455 1456 1458 1459 1459 1461 1465 1468 1469 1470 1471 1472 1473 1475 1477 1479 1480 1481 1483 1484 1486 1488 1490 1492 1493 1495 1496 1498 1499 1500 1501 1502 1504 1505 1507 1508 1509 1511 1513 1514 1516 1518 1519 1520 1521 1522 1523 1526 1528 1529 1530 1531 1533 1533 1534 1535 1535 1534 1534 1535 1536 1536 1535 1535
1495 1492 1488 1485 1481 1478 1474 1470 1466 1462 1459 1456 1453 1451 1450 1449 1448 1448 1448 1450 1452 1452 1451 1453 1455 1456 1459 1463 1465 1466 1468 1469 1470 1470 1473 1476 1478 1479 1480 1481 1482 1484 1486 1488 1490 1491 1492 1493 1495 1496 1498 1499 1500 1501 1502 1504 1505 1506 1508 1510 1512 1514 1515 1516 1517 1518 1519 1521 1524 1525 1527 1528 1529 1530 1532 1534 1536 1536 1534 1534 1534 1535 1535 1535 1534